WST702 MYNN-MYEH

Flight info

Callsign WST702
Flight time 0h 19m
Altitude 7000
Route FREDY2 JEDIK
Aircraft E145/M-SDFGIRW/S

Departure

Time 2026-05-07 01:41
Airport Lynden Pindling International Airport (MYNN)

Arrival

Time 2026-05-07 02:00
Airport North Eleuthera Airport (MYEH)
Time Latitude Longitude Altitude Speed Heading
2026-05-07 01:27 25.04747 -77.46596 26 ft 0 kts 179°
2026-05-07 01:38 25.04745 -77.46596 26 ft 1 kts 199°
2026-05-07 01:38 25.04738 -77.46633 25 ft 9 kts 265°
2026-05-07 01:39 25.04715 -77.46732 23 ft 17 kts 237°
2026-05-07 01:39 25.04764 -77.46841 24 ft 18 kts 315°
2026-05-07 01:39 25.04853 -77.46942 26 ft 19 kts 314°
2026-05-07 01:39 25.04984 -77.47084 26 ft 29 kts 317°
2026-05-07 01:40 25.05119 -77.47242 24 ft 17 kts 312°
2026-05-07 01:40 25.05197 -77.47330 22 ft 17 kts 309°
2026-05-07 01:40 25.05202 -77.47473 22 ft 21 kts 243°
2026-05-07 01:40 25.05102 -77.47477 21 ft 20 kts 134°
2026-05-07 01:41 25.04822 -77.47163 31 ft 94 kts 134°
2026-05-07 01:41 25.04204 -77.46475 32 ft 152 kts 135°
2026-05-07 01:41 25.03419 -77.45636 471 ft 163 kts 135°
2026-05-07 01:41 25.02589 -77.44734 1130 ft 171 kts 130°
2026-05-07 01:42 25.01757 -77.43771 1800 ft 180 kts 132°
2026-05-07 01:42 25.00859 -77.42766 2465 ft 188 kts 133°
2026-05-07 01:42 24.99932 -77.41737 2996 ft 197 kts 133°
2026-05-07 01:42 24.98982 -77.40569 3369 ft 213 kts 120°
2026-05-07 01:43 24.98682 -77.38976 3749 ft 222 kts 82°
2026-05-07 01:43 24.99359 -77.37434 4129 ft 233 kts 45°
2026-05-07 01:43 25.00714 -77.36365 4524 ft 243 kts 37°
2026-05-07 01:43 25.01998 -77.35105 4899 ft 254 kts 43°
2026-05-07 01:44 25.03280 -77.33724 5256 ft 263 kts 44°
2026-05-07 01:44 25.04617 -77.32250 5571 ft 283 kts 45°
2026-05-07 01:44 25.06032 -77.30678 5944 ft 285 kts 45°
2026-05-07 01:44 25.07417 -77.29138 6297 ft 283 kts 45°
2026-05-07 01:45 25.08795 -77.27605 6654 ft 282 kts 44°
2026-05-07 01:45 25.10176 -77.26069 6908 ft 284 kts 44°
2026-05-07 01:45 25.11587 -77.24499 6929 ft 295 kts 44°
2026-05-07 01:45 25.12938 -77.22713 6936 ft 305 kts 52°
2026-05-07 01:46 25.14234 -77.20896 6923 ft 295 kts 51°
2026-05-07 01:46 25.15480 -77.19166 6916 ft 278 kts 51°
2026-05-07 01:46 25.16651 -77.17544 6917 ft 263 kts 50°
2026-05-07 01:46 25.17761 -77.16007 6918 ft 249 kts 50°
2026-05-07 01:47 25.18813 -77.14548 6919 ft 238 kts 51°
2026-05-07 01:47 25.19831 -77.13138 6919 ft 227 kts 50°
2026-05-07 01:47 25.20788 -77.11810 6917 ft 218 kts 50°
2026-05-07 01:47 25.21722 -77.10515 6796 ft 216 kts 50°
2026-05-07 01:48 25.22671 -77.09199 6545 ft 219 kts 51°
2026-05-07 01:48 25.23617 -77.07885 6380 ft 218 kts 50°
2026-05-07 01:48 25.24553 -77.06587 6212 ft 218 kts 50°
2026-05-07 01:48 25.25507 -77.05263 6042 ft 217 kts 50°
2026-05-07 01:49 25.26442 -77.03970 5876 ft 216 kts 49°
2026-05-07 01:49 25.27465 -77.02767 5674 ft 217 kts 45°
2026-05-07 01:49 25.28521 -77.01553 5415 ft 220 kts 45°
2026-05-07 01:49 25.29601 -77.00311 5153 ft 224 kts 45°
2026-05-07 01:50 25.30676 -76.99073 4896 ft 227 kts 45°
2026-05-07 01:50 25.31772 -76.97811 4639 ft 229 kts 45°
2026-05-07 01:50 25.32888 -76.96526 4377 ft 232 kts 46°
2026-05-07 01:50 25.34009 -76.95234 4115 ft 233 kts 46°
2026-05-07 01:51 25.35137 -76.93934 3853 ft 235 kts 46°
2026-05-07 01:51 25.36266 -76.92632 3591 ft 236 kts 46°
2026-05-07 01:51 25.37403 -76.91321 3329 ft 237 kts 46°
2026-05-07 01:51 25.38554 -76.89992 3068 ft 237 kts 46°
2026-05-07 01:52 25.39680 -76.88698 2934 ft 229 kts 46°
2026-05-07 01:52 25.40766 -76.87452 2804 ft 220 kts 46°
2026-05-07 01:52 25.41811 -76.86255 2676 ft 213 kts 46°
2026-05-07 01:52 25.42826 -76.85101 2548 ft 206 kts 46°
2026-05-07 01:53 25.43820 -76.83978 2418 ft 200 kts 46°
2026-05-07 01:53 25.44782 -76.82898 2290 ft 195 kts 46°
2026-05-07 01:53 25.45734 -76.81838 2163 ft 190 kts 46°
2026-05-07 01:53 25.46649 -76.80827 2036 ft 185 kts 46°
2026-05-07 01:54 25.47552 -76.79814 1930 ft 179 kts 53°
2026-05-07 01:54 25.48183 -76.78696 1919 ft 167 kts 61°
2026-05-07 01:54 25.48753 -76.77593 1920 ft 161 kts 61°
2026-05-07 01:54 25.49297 -76.76518 1926 ft 159 kts 63°
2026-05-07 01:55 25.49815 -76.75430 1924 ft 157 kts 63°
2026-05-07 01:55 25.50320 -76.74365 1926 ft 155 kts 63°
2026-05-07 01:55 25.50818 -76.73316 1923 ft 153 kts 63°
2026-05-07 01:55 25.51312 -76.72280 1924 ft 151 kts 63°
2026-05-07 01:56 25.51803 -76.71254 1923 ft 149 kts 63°
2026-05-07 01:56 25.52282 -76.70257 1924 ft 146 kts 63°
2026-05-07 01:56 25.52754 -76.69276 1923 ft 143 kts 63°
2026-05-07 01:56 25.53234 -76.68284 1936 ft 147 kts 63°
2026-05-07 01:57 25.53723 -76.67278 1938 ft 152 kts 63°
2026-05-07 01:57 25.54234 -76.66223 1939 ft 158 kts 64°
2026-05-07 01:57 25.54567 -76.65084 2019 ft 152 kts 85°
2026-05-07 01:57 25.54470 -76.63957 2135 ft 140 kts 109°
2026-05-07 01:58 25.54036 -76.63126 2135 ft 123 kts 130°
2026-05-07 01:58 25.53328 -76.62562 1808 ft 127 kts 156°
2026-05-07 01:58 25.52414 -76.62331 1602 ft 145 kts 174°
2026-05-07 01:58 25.51412 -76.62425 1706 ft 150 kts 186°
2026-05-07 01:59 25.50377 -76.62660 1457 ft 154 kts 195°
2026-05-07 01:59 25.49455 -76.63258 959 ft 157 kts 226°
2026-05-07 01:59 25.48898 -76.64267 547 ft 152 kts 248°
2026-05-07 01:59 25.48518 -76.65367 426 ft 154 kts 246°
2026-05-07 02:00 25.48142 -76.66487 258 ft 160 kts 247°
2026-05-07 02:00 25.47744 -76.67638 46 ft 151 kts 246°
2026-05-07 02:00 25.47433 -76.68490 22 ft 58 kts 249°
2026-05-07 02:00 25.47368 -76.68655 22 ft 2 kts 300°
2026-05-07 02:01 25.47387 -76.68631 22 ft 12 kts 73°
2026-05-07 02:01 25.47436 -76.68495 22 ft 21 kts 65°
2026-05-07 02:01 25.47531 -76.68440 23 ft 15 kts 31°
2026-05-07 02:01 25.47595 -76.68311 24 ft 19 kts 69°
2026-05-07 02:02 25.47612 -76.68256 24 ft 0 kts 77°